FW6242 Weather Reports


time (UTC)temp
C
wind
direction
speed
KPH
gust
KPH
rain 1hr
cm
rain 24hr
cm
rain mn
cm
humidity
%
barometer
mb
20260509000429 11 0 16.1 29.0 0.00 0.00 0.00 61 1014.1
20260508235919 11 0 16.1 27.4 0.00 0.00 0.00 61 1013.7
20260508235408 11 0 12.9 27.4 0.00 0.00 0.00 59 1013.3
20260508234858 11 0 14.5 27.4 0.00 0.00 0.00 58 1013.2
20260508234348 11 0 12.9 27.4 0.00 0.00 0.00 58 1013.3
20260508233838 11 0 16.1 25.7 0.00 0.00 0.00 58 1012.7
20260508231249 12 0 11.3 22.5 0.00 0.00 0.00 55 1011.8
20260508230228 12 0 8.0 17.7 0.00 0.00 0.00 53 1011.7
20260508225717 12 0 12.9 17.7 0.00 0.00 0.00 52 1011.5
20260508225207 12 0 9.7 17.7 0.00 0.00 0.00 54 1011.6
20260508224657 12 0 9.7 17.7 0.00 0.00 0.00 53 1011.5
20260508224146 12 0 8.0 16.1 0.00 0.00 0.00 53 1011.5
20260508223637 12 0 9.7 12.9 0.00 0.00 0.00 54 1011.4
20260508223127 12 0 6.4 16.1 0.00 0.00 0.00 54 1011.3
20260508222617 12 0 9.7 17.7 0.00 0.00 0.00 53 1011.1
20260508222106 12 0 12.9 17.7 0.00 0.00 0.00 52 1011.1
20260508221557 12 0 12.9 17.7 0.00 0.00 0.00 52 1011.2
20260508221046 13 0 11.3 17.7 0.00 0.00 0.00 51 1011.2
20260508220026 12 0 9.7 14.5 0.00 0.00 0.00 51 1011.0
20260508215516 13 0 6.4 12.9 0.00 0.00 0.00 51 1010.9
20260508214456 13 0 6.4 12.9 0.00 0.00 0.00 49 1010.9
20260508213947 13 0 6.4 11.3 0.00 0.00 0.00 49 1010.8
20260508213435 13 0 6.4 8.0 0.00 0.00 0.00 49 1010.8
20260508212925 13 0 3.2 6.4 0.00 0.00 0.00 50 1011.0
20260508212415 13 0 3.2 6.4 0.00 0.00 0.00 48 1010.8
20260508211906 13 0 3.2 6.4 0.00 0.00 0.00 46 1010.8
20260508211354 13 0 3.2 8.0 0.00 0.00 0.00 45 1010.7
20260508210846 13 0 3.2 8.0 0.00 0.00 0.00 45 1010.5
20260508210335 14 0 3.2 8.0 0.00 0.00 0.00 44 1010.5
20260508205315 14 0 6.4 12.9 0.00 0.00 0.00 43 1010.4
20260508204804 14 0 4.8 12.9 0.00 0.00 0.00 43 1010.7
20260508204253 14 0 4.8 12.9 0.00 0.00 0.00 42 1010.7
20260508202723 14 0 6.4 12.9 0.00 0.00 0.00 41 1010.7
20260508202213 15 0 6.4 20.9 0.00 0.00 0.00 40 1010.8
20260508201701 15 0 8.0 22.5 0.00 0.00 0.00 39 1011.0
20260508200641 16 0 14.5 22.5 0.00 0.00 0.00 37 1010.8
20260508200130 16 0 6.4 14.5 0.00 0.00 0.00 37 1011.0
20260508195620 16 0 8.0 19.3 0.00 0.00 0.00 37 1010.8
20260508195111 16 0 6.4 19.3 0.00 0.00 0.00 35 1010.7
20260508194600 16 0 8.0 24.1 0.00 0.00 0.00 36 1010.8
20260508193539 16 0 12.9 22.5 0.00 0.00 0.00 36 1010.4
20260508193033 16 0 11.3 19.3 0.00 0.00 0.00 34 1010.4
20260508192018 16 0 6.4 20.9 0.00 0.00 0.00 35 1010.5
20260508191459 16 0 6.4 16.1 0.00 0.00 0.00 34 1010.3
20260508190949 16 0 6.4 16.1 0.00 0.00 0.00 35 1010.8
20260508190439 16 0 6.4 17.7 0.00 0.00 0.00 34 1010.4
20260508185929 16 0 8.0 17.7 0.00 0.00 0.00 33 1010.7
20260508185419 16 0 6.4 17.7 0.00 0.00 0.00 34 1010.8
20260508184909 16 0 6.4 17.7 0.00 0.00 0.00 33 1010.9
20260508184359 16 0 9.7 19.3 0.00 0.00 0.00 33 1010.9
20260508183849 16 0 11.3 19.3 0.00 0.00 0.00 32 1011.0
20260508183339 16 0 9.7 19.3 0.00 0.00 0.00 32 1010.8
20260508182829 16 0 6.4 24.1 0.00 0.00 0.00 33 1011.0
20260508182318 16 0 8.0 24.1 0.00 0.00 0.00 32 1011.1
20260508181258 16 0 4.8 14.5 0.00 0.00 0.00 35 1011.2
20260508180748 16 0 6.4 14.5 0.00 0.00 0.00 35 1011.1
20260508180238 16 0 4.8 14.5 0.00 0.00 0.00 34 1011.2
20260508175727 16 0 3.2 14.5 0.00 0.00 0.00 36 1011.5
20260508175218 16 0 6.4 14.5 0.00 0.00 0.00 33 1011.5
20260508174708 16 0 8.0 17.7 0.00 0.00 0.00 34 1011.2
20260508174157 16 0 12.9 17.7 0.00 0.00 0.00 33 1011.5
20260508173647 15 0 11.3 20.9 0.00 0.00 0.00 32 1011.5
20260508173137 15 0 12.9 20.9 0.00 0.00 0.00 33 1011.7
20260508172631 15 0 11.3 20.9 0.00 0.00 0.00 33 1011.7
20260508172121 15 0 6.4 20.9 0.00 0.00 0.00 32 1011.8
20260508171610 15 0 8.0 17.7 0.00 0.00 0.00 34 1011.9
20260508171100 15 0 4.8 19.3 0.00 0.00 0.00 34 1012.1
20260508170550 15 0 11.3 19.3 0.00 0.00 0.00 32 1012.2
20260508170043 15 0 6.4 24.1 0.00 0.00 0.00 33 1012.3
20260508165529 15 0 9.7 24.1 0.00 0.00 0.00 33 1012.3
20260508164513 15 0 12.9 22.5 0.00 0.00 0.00 31 1012.2
20260508163959 14 0 11.3 20.9 0.00 0.00 0.00 31 1012.4
20260508163449 14 0 11.3 24.1 0.00 0.00 0.00 30 1012.6
20260508162428 14 0 17.7 29.0 0.00 0.00 0.00 29 1012.7
20260508161919 14 0 14.5 29.0 0.00 0.00 0.00 29 1012.4
20260508161408 14 0 16.1 30.6 0.00 0.00 0.00 29 1012.5
20260508160858 14 0 17.7 30.6 0.00 0.00 0.00 28 1012.5
20260508155838 13 0 11.3 27.4 0.00 0.00 0.00 33 1012.8
20260508154308 13 0 17.7 30.6 0.00 0.00 0.00 31 1012.8
20260508153757 13 0 16.1 0.0 0.00 0.00 0.00 33 1012.9
20260508153508 13 0 20.9 30.6 0.00 0.00 0.00 32 1013.0
20260508152958 13 0 14.5 30.6 0.00 0.00 0.00 33 1012.9
20260508152447 13 0 19.3 35.4 0.00 0.00 0.00 33 1013.1
20260508151938 13 0 17.7 35.4 0.00 0.00 0.00 33 1013.1
20260508151427 13 0 14.5 32.2 0.00 0.00 0.00 33 1013.2
20260508150407 12 0 14.5 30.6 0.00 0.00 0.00 36 1013.4
20260508144327 12 0 22.5 29.0 0.00 0.00 0.00 38 1013.9
20260508143306 11 0 17.7 29.0 0.00 0.00 0.00 39 1013.9
20260508142756 11 0 12.9 25.7 0.00 0.00 0.00 40 1013.9
20260508141736 11 0 17.7 27.4 0.00 0.00 0.00 43 1014.2
20260508141227 11 0 17.7 30.6 0.00 0.00 0.00 44 1014.1
20260508140715 11 0 12.9 30.6 0.00 0.00 0.00 44 1014.2
20260508140207 10 0 12.9 25.7 0.00 0.00 0.00 47 1014.1
20260508135656 10 0 16.1 25.7 0.00 0.00 0.00 46 1014.3
20260508135145 10 0 17.7 24.1 0.00 0.00 0.00 46 1014.0
20260508134125 10 0 12.9 29.0 0.00 0.00 0.00 48 1014.2
20260508133616 10 0 12.9 24.1 0.00 0.00 0.00 47 1014.3
20260508133106 10 0 11.3 22.5 0.00 0.00 0.00 48 1014.2
20260508131535 10 0 16.1 25.7 0.00 0.00 0.00 48 1014.4
20260508131025 9 0 12.9 24.1 0.00 0.00 0.00 49 1014.2
20260508130514 9 0 14.5 24.1 0.00 0.00 0.00 48 1014.2
20260508130005 9 0 11.3 22.5 0.00 0.00 0.00 49 1013.9
20260508125455 9 0 11.3 24.1 0.00 0.00 0.00 48 1013.9
20260508124944 9 0 12.9 24.1 0.00 0.00 0.00 48 1014.4
20260508123924 9 0 9.7 20.9 0.00 0.00 0.00 50 1014.1
20260508123415 8 0 12.9 24.1 0.00 0.00 0.00 50 1014.2
20260508122904 8 0 12.9 25.7 0.00 0.00 0.00 49 1013.9
20260508122354 8 0 11.3 25.7 0.00 0.00 0.00 51 1013.8
20260508121844 8 0 9.7 22.5 0.00 0.00 0.00 51 1014.0
20260508121334 8 0 12.9 20.9 0.00 0.00 0.00 51 1013.8
20260508120314 7 0 12.9 27.4 0.00 0.00 0.00 53 1013.4
20260508115804 7 0 12.9 19.3 0.00 0.00 0.00 55 1013.8
20260508114743 7 0 8.0 19.3 0.00 0.00 0.00 58 1013.6
20260508114233 6 0 9.7 20.9 0.00 0.00 0.00 59 1013.6
20260508113723 6 0 12.9 20.9 0.00 0.00 0.00 59 1013.7
20260508113213 6 0 8.0 17.7 0.00 0.00 0.00 60 1013.6
20260508112702 6 0 8.0 17.7 0.00 0.00 0.00 60 1013.4
20260508112153 5 0 9.7 17.7 0.00 0.00 0.00 61 1013.4
20260508111642 5 0 9.7 17.7 0.00 0.00 0.00 62 1013.4
20260508111132 5 0 9.7 17.7 0.00 0.00 0.00 62 1013.6
20260508110624 5 0 9.7 17.7 0.00 0.00 0.00 61 1013.5
20260508104220 6 0 9.7 17.7 0.00 0.00 0.00 59 1013.5
20260508103710 6 0 8.0 17.7 0.00 0.00 0.00 59 1013.4
20260508103200 6 0 9.7 14.5 0.00 0.00 0.00 59 1013.7
20260508102651 6 0 8.0 16.1 0.00 0.00 0.00 59 1013.5
20260508102139 6 0 11.3 17.7 0.00 0.00 0.00 59 1013.4
20260508101629 6 0 11.3 17.7 0.00 0.00 0.00 59 1013.2
20260508101119 6 0 8.0 17.7 0.00 0.00 0.00 59 1013.6
20260508100609 6 0 11.3 22.5 0.00 0.00 0.00 59 1013.3
20260508095549 6 0 9.7 17.7 0.00 0.00 0.00 60 1013.2
20260508095040 6 0 9.7 17.7 0.00 0.00 0.00 60 1013.0
20260508094526 6 0 9.7 17.7 0.00 0.00 0.00 59 1013.0
20260508094022 6 0 9.7 17.7 0.00 0.00 0.00 60 1013.1
20260508093508 6 0 9.7 17.7 0.00 0.00 0.00 60 1013.0
20260508092959 6 0 8.0 16.1 0.00 0.00 0.00 60 1012.9
20260508092448 6 0 9.7 17.7 0.00 0.00 0.00 61 1012.6
20260508091938 6 0 8.0 17.7 0.00 0.00 0.00 61 1012.7
20260508090918 6 0 11.3 17.7 0.00 0.00 0.00 60 1012.5
20260508090408 6 0 8.0 17.7 0.00 0.00 0.00 61 1012.7
20260508085347 6 0 9.7 16.1 0.00 0.00 0.00 61 1012.5
20260508084837 6 0 9.7 16.1 0.00 0.00 0.00 60 1012.2
20260508084328 6 0 9.7 16.1 0.00 0.00 0.00 59 1012.4
20260508083817 6 0 9.7 16.1 0.00 0.00 0.00 58 1012.3
20260508083308 6 0 9.7 16.1 0.00 0.00 0.00 57 1012.2
20260508081738 6 0 6.4 12.9 0.00 0.00 0.00 59 1012.6
20260508081227 6 0 6.4 16.1 0.00 0.00 0.00 58 1012.6
20260508080716 6 0 8.0 16.1 0.00 0.00 0.00 57 1012.6
20260508080207 6 0 8.0 12.9 0.00 0.00 0.00 57 1012.5
20260508075657 6 0 6.4 12.9 0.00 0.00 0.00 57 1012.4
20260508075146 6 0 6.4 16.1 0.00 0.00 0.00 57 1012.6
20260508074126 6 0 6.4 11.3 0.00 0.00 0.00 57 1012.4
20260508073616 6 0 4.8 8.0 0.00 0.00 0.00 58 1012.3
20260508072555 7 0 3.2 14.5 0.00 0.00 0.00 54 1012.5
20260508072045 8 0 8.0 16.1 0.00 0.00 0.00 52 1012.4
20260508071535 8 0 9.7 16.1 0.00 0.00 0.00 50 1012.4
20260508071026 8 0 11.3 19.3 0.00 0.00 0.00 50 1012.3
20260508070515 8 0 9.7 20.9 0.00 0.00 0.00 48 1012.2
20260508070005 9 0 12.9 25.7 0.00 0.00 0.00 48 1012.1
20260508065455 9 0 12.9 25.7 0.00 0.00 0.00 47 1012.0
20260508064950 8 0 12.9 24.1 0.00 0.00 0.00 47 1012.1
20260508064435 8 0 14.5 24.1 0.00 0.00 0.00 48 1012.1
20260508063925 8 0 14.5 24.1 0.00 0.00 0.00 48 1012.3
20260508063415 8 0 14.5 24.1 0.00 0.00 0.00 48 1012.1
20260508062904 8 0 16.1 24.1 0.00 0.00 0.00 48 1011.9
20260508062354 8 0 12.9 24.1 0.00 0.00 0.00 48 1012.0
20260508061846 8 0 12.9 20.9 0.00 0.00 0.00 49 1012.0
20260508060212 8 0 11.3 0.0 0.00 0.00 0.00 49 1012.4
20260508055955 8 0 12.9 24.1 0.00 0.00 0.00 49 1012.5
20260508055445 9 0 12.9 24.1 0.00 0.00 0.00 49 1012.4
20260508054934 9 0 11.3 22.5 0.00 0.00 0.00 47 1012.5
20260508054425 9 0 12.9 24.1 0.00 0.00 0.00 47 1012.4
20260508053404 9 0 14.5 24.1 0.00 0.00 0.00 48 1012.4
20260508052855 9 0 12.9 24.1 0.00 0.00 0.00 48 1012.5
20260508052344 9 0 12.9 24.1 0.00 0.00 0.00 47 1012.2
20260508051834 8 0 14.5 27.4 0.00 0.00 0.00 49 1012.3
20260508050814 8 0 17.7 27.4 0.00 0.00 0.00 49 1012.5
20260508050304 8 0 17.7 27.4 0.00 0.00 0.00 49 1012.5
20260508045244 8 0 17.7 27.4 0.00 0.00 0.00 51 1012.6
20260508044733 8 0 16.1 27.4 0.00 0.00 0.00 51 1012.6
20260508044224 8 0 12.9 22.5 0.00 0.00 0.00 52 1012.5
20260508043714 8 0 12.9 20.9 0.00 0.00 0.00 52 1012.8
20260508043205 8 0 11.3 22.5 0.00 0.00 0.00 52 1013.0
20260508042653 8 0 11.3 22.5 0.00 0.00 0.00 53 1013.0
20260508042145 8 0 12.9 22.5 0.00 0.00 0.00 53 1013.0
20260508041633 8 0 9.7 22.5 0.00 0.00 0.00 53 1013.1
20260508041124 8 0 12.9 19.3 0.00 0.00 0.00 53 1013.0
20260508040113 7 0 9.7 17.7 0.00 0.00 0.00 57 1012.6
20260508035553 7 0 6.4 14.5 0.00 0.00 0.00 57 1012.5
20260508035042 7 0 4.8 16.1 0.00 0.00 0.00 58 1012.7
20260508034023 7 0 9.7 17.7 0.00 0.00 0.00 57 1012.6
20260508033002 7 0 8.0 14.5 0.00 0.00 0.00 58 1012.6
20260508032452 7 0 8.0 16.1 0.00 0.00 0.00 58 1012.3
20260508031942 7 0 8.0 16.1 0.00 0.00 0.00 59 1012.3
20260508031432 7 0 6.4 12.9 0.00 0.00 0.00 59 1012.3
20260508030922 7 0 6.4 12.9 0.00 0.00 0.00 58 1012.2
20260508030411 7 0 6.4 12.9 0.00 0.00 0.00 58 1011.8
20260508025902 7 0 6.4 11.3 0.00 0.00 0.00 60 1011.8
20260508025352 7 0 6.4 9.7 0.00 0.00 0.00 60 1011.5
20260508024841 7 0 4.8 9.7 0.00 0.00 0.00 60 1011.4
20260508024331 6 0 6.4 9.7 0.00 0.00 0.00 60 1011.4
20260508023821 5 0 6.4 9.7 0.00 0.00 0.00 63 1011.2
20260508023311 5 0 6.4 9.7 0.00 0.00 0.00 66 1011.1
20260508022801 5 0 6.4 8.0 0.00 0.00 0.00 66 1011.0
20260508022251 5 0 6.4 8.0 0.00 0.00 0.00 66 1011.0
20260508021740 6 0 4.8 8.0 0.00 0.00 0.00 64 1010.9
20260508021231 6 0 4.8 8.0 0.00 0.00 0.00 61 1011.0
20260508020720 6 0 4.8 8.0 0.00 0.00 0.00 59 1011.1
20260508020210 6 0 3.2 8.0 0.00 0.00 0.00 61 1011.1
20260508015700 7 0 4.8 9.7 0.00 0.00 0.00 60 1011.2
20260508015150 6 0 6.4 9.7 0.00 0.00 0.00 59 1011.4
20260508014129 5 0 3.2 6.4 0.00 0.00 0.00 66 1011.4
20260508013620 5 0 3.2 6.4 0.00 0.00 0.00 68 1011.4
20260508013109 6 0 3.2 6.4 0.00 0.00 0.00 65 1011.2
20260508011538 5 0 3.2 3.2 0.00 0.00 0.00 65 1011.0
20260508011029 5 0 1.6 4.8 0.00 0.00 0.00 67 1011.1
20260508005458 6 0 3.2 4.8 0.00 0.00 0.00 64 1011.1
20260508004438 6 0 3.2 4.8 0.00 0.00 0.00 63 1010.8
20260508003930 7 0 3.2 4.8 0.00 0.00 0.00 61 1010.9
20260508003418 7 0 3.2 4.8 0.00 0.00 0.00 59 1010.5
20260508002908 7 0 1.6 4.8 0.00 0.00 0.00 59 1010.3
20260508002357 7 0 1.6 4.8 0.00 0.00 0.00 61 1010.2
20260508001848 7 0 1.6 4.8 0.00 0.00 0.00 61 1010.7
20260508001339 6 0 3.2 4.8 0.00 0.00 0.00 60 1010.8